EN

Hourly Weather Ladino

Today, 24 July, Saturday

Time Temperature Precipitation Wind Pressure Humidity
00:00 +15°C° 0 mm 1 mps 748 mmHg 71%
01:00 +13°C° 0 mm 1 mps 748 mmHg 76%
02:00 +12°C° 0 mm 1 mps 748 mmHg 80%
03:00 +12°C° 0 mm 1 mps 749 mmHg 79%
04:00 +12°C° 0 mm 1 mps 749 mmHg 79%
05:00 +12°C° 0 mm 1 mps 749 mmHg 78%
06:00 +14°C° 0 mm 1 mps 749 mmHg 69%
07:00 +16°C° 0 mm 1 mps 749 mmHg 59%
08:00 +20°C° 0 mm 1 mps 750 mmHg 49%
09:00 +21°C° 0 mm 1 mps 750 mmHg 45%
10:00 +23°C° 0 mm 1 mps 750 mmHg 41%
11:00 +24°C° 0 mm 1 mps 750 mmHg 36%
12:00 +24°C° 0 mm 1 mps 750 mmHg 35%
13:00 +25°C° 0 mm 1 mps 750 mmHg 34%
14:00 +25°C° 0 mm 1 mps 750 mmHg 33%
15:00 +25°C° 0 mm 1 mps 750 mmHg 35%
16:00 +25°C° 0 mm 1 mps 750 mmHg 37%
17:00 +24°C° 0 mm 1 mps 750 mmHg 39%
18:00 +23°C° 0 mm 1 mps 750 mmHg 46%
19:00 +21°C° 0 mm 1 mps 750 mmHg 52%
20:00 +20°C° 0 mm 1 mps 751 mmHg 59%
21:00 +18°C° 0 mm 2 mps 751 mmHg 59%
22:00 +18°C° 0 mm 2 mps 751 mmHg 60%
23:00 +17°C° 0 mm 2 mps 751 mmHg 60%

Tomorrow, 25 July, Sunday

Time Temperature Precipitation Wind Pressure Humidity
00:00 +16°C° 0 mm 2 mps 751 mmHg 62%
01:00 +16°C° 0 mm 1 mps 752 mmHg 64%
02:00 +15°C° 0 mm 1 mps 752 mmHg 66%
03:00 +15°C° 0 mm 1 mps 752 mmHg 69%
04:00 +14°C° 0 mm 1 mps 752 mmHg 71%
05:00 +14°C° 0 mm 1 mps 752 mmHg 73%
06:00 +16°C° 0 mm 1 mps 752 mmHg 66%
07:00 +20°C° 0 mm 1 mps 753 mmHg 58%
08:00 +20°C° 0 mm 0 mps 753 mmHg 50%
09:00 +22°C° 0 mm 0 mps 753 mmHg 45%
10:00 +24°C° 0 mm 0 mps 753 mmHg 40%
11:00 +25°C° 0 mm 0 mps 753 mmHg 35%
12:00 +28°C° 0 mm 1 mps 753 mmHg 34%
13:00 +28°C° 0 mm 1 mps 753 mmHg 32%
14:00 +29°C° 0 mm 1 mps 752 mmHg 31%
15:00 +29°C° 0 mm 1 mps 752 mmHg 31%
16:00 +28°C° 0 mm 1 mps 752 mmHg 32%
17:00 +28°C° 0 mm 1 mps 752 mmHg 32%
18:00 +26°C° 0 mm 1 mps 752 mmHg 40%
19:00 +24°C° 0 mm 1 mps 752 mmHg 48%
20:00 +22°C° 0 mm 1 mps 753 mmHg 56%
21:00 +21°C° 0 mm 1 mps 753 mmHg 59%
22:00 +20°C° 0 mm 1 mps 753 mmHg 62%
23:00 +19°C° 0 mm 1 mps 753 mmHg 66%

Day after tomorrow, 26 July, Monday

Time Temperature Precipitation Wind Pressure Humidity
00:00 +18°C° 0 mm 1 mps 753 mmHg 68%
01:00 +18°C° 0 mm 1 mps 754 mmHg 71%
02:00 +16°C° 0 mm 1 mps 754 mmHg 73%
03:00 +16°C° 0 mm 1 mps 754 mmHg 74%
04:00 +16°C° 0 mm 1 mps 754 mmHg 75%
05:00 +16°C° 0 mm 1 mps 754 mmHg 75%
06:00 +20°C° 0 mm 1 mps 754 mmHg 67%
07:00 +22°C° 0 mm 1 mps 754 mmHg 58%
08:00 +25°C° 0 mm 1 mps 754 mmHg 50%
09:00 +26°C° 0 mm 1 mps 754 mmHg 45%
10:00 +28°C° 0 mm 1 mps 755 mmHg 40%
11:00 +29°C° 0 mm 1 mps 755 mmHg 35%
12:00 +29°C° 0 mm 1 mps 754 mmHg 35%
13:00 +30°C° 0 mm 2 mps 754 mmHg 35%
14:00 +30°C° 0 mm 2 mps 754 mmHg 35%
15:00 +30°C° 0 mm 2 mps 754 mmHg 36%
16:00 +29°C° 0 mm 2 mps 754 mmHg 38%
17:00 +29°C° 0 mm 2 mps 754 mmHg 39%
18:00 +27°C° 0 mm 2 mps 754 mmHg 46%
19:00 +25°C° 0 mm 2 mps 754 mmHg 53%
20:00 +23°C° 0 mm 1 mps 753 mmHg 59%
21:00 +23°C° 0 mm 1 mps 754 mmHg 60%
22:00 +22°C° 0 mm 1 mps 754 mmHg 61%
23:00 +22°C° 0 mm 1 mps 754 mmHg 62%

27 July, Tuesday

Time Temperature Precipitation Wind Pressure Humidity
00:00 +21°C° 0 mm 1 mps 754 mmHg 66%
01:00 +20°C° 0 mm 1 mps 754 mmHg 70%
02:00 +19°C° 0 mm 1 mps 754 mmHg 73%
03:00 +19°C° 0 mm 1 mps 754 mmHg 75%
04:00 +19°C° 0 mm 1 mps 754 mmHg 78%
05:00 +19°C° 0 mm 1 mps 754 mmHg 80%
06:00 +20°C° 0 mm 2 mps 754 mmHg 72%
07:00 +23°C° 0 mm 2 mps 754 mmHg 64%
08:00 +26°C° 0 mm 2 mps 753 mmHg 56%
09:00 +27°C° 0 mm 3 mps 753 mmHg 50%
10:00 +29°C° 0 mm 3 mps 753 mmHg 44%
11:00 +30°C° 0 mm 3 mps 753 mmHg 38%
12:00 +30°C° 0 mm 3 mps 752 mmHg 36%
13:00 +31°C° 0 mm 3 mps 752 mmHg 34%
14:00 +31°C° 0 mm 3 mps 752 mmHg 32%
15:00 +30°C° 0 mm 3 mps 751 mmHg 38%
16:00 +29°C° 0 mm 3 mps 751 mmHg 44%
17:00 +27°C° 0 mm 3 mps 751 mmHg 49%
18:00 +26°C° 0 mm 2 mps 751 mmHg 54%
19:00 +25°C° 0 mm 2 mps 751 mmHg 59%
20:00 +24°C° 0 mm 2 mps 750 mmHg 63%
21:00 +24°C° 0 mm 2 mps 750 mmHg 63%
22:00 +23°C° 0 mm 2 mps 750 mmHg 63%
23:00 +23°C° 0 mm 2 mps 750 mmHg 64%

28 July, Wednesday

Time Temperature Precipitation Wind Pressure Humidity
00:00 +21°C° 0 mm 2 mps 749 mmHg 66%
01:00 +21°C° 0 mm 3 mps 749 mmHg 68%
02:00 +20°C° 0 mm 3 mps 748 mmHg 70%
03:00 +20°C° 0.3 mm 3 mps 748 mmHg 76%
04:00 +19°C° 0.3 mm 3 mps 748 mmHg 82%
05:00 +19°C° 0.3 mm 3 mps 748 mmHg 88%
06:00 +19°C° 0.9 mm 3 mps 747 mmHg 91%
07:00 +19°C° 0.9 mm 3 mps 747 mmHg 94%
08:00 +18°C° 0.9 mm 3 mps 747 mmHg 97%
09:00 +19°C° 0.8 mm 3 mps 746 mmHg 97%
10:00 +19°C° 0.8 mm 3 mps 746 mmHg 97%
11:00 +19°C° 0.8 mm 3 mps 746 mmHg 96%
12:00 +19°C° 0.1 mm 3 mps 745 mmHg 95%
13:00 +20°C° 0.1 mm 2 mps 745 mmHg 94%
14:00 +20°C° 0.1 mm 2 mps 745 mmHg 94%
15:00 +20°C° 0.1 mm 2 mps 745 mmHg 93%
16:00 +20°C° 0.1 mm 2 mps 744 mmHg 93%
17:00 +20°C° 0.1 mm 2 mps 744 mmHg 93%
18:00 +21°C° 0.2 mm 1 mps 744 mmHg 94%
19:00 +21°C° 0.2 mm 1 mps 743 mmHg 95%
20:00 +21°C° 0.2 mm 1 mps 743 mmHg 96%
21:00 +20°C° 0.2 mm 1 mps 743 mmHg 96%
22:00 +20°C° 0.2 mm 1 mps 743 mmHg 96%
23:00 +19°C° 0.2 mm 2 mps 743 mmHg 96%

29 July, Thursday

Time Temperature Precipitation Wind Pressure Humidity
00:00 +19°C° 0.1 mm 2 mps 743 mmHg 96%
01:00 +18°C° 0.1 mm 2 mps 743 mmHg 96%
02:00 +18°C° 0.1 mm 2 mps 743 mmHg 95%
03:00 +18°C° 0 mm 2 mps 743 mmHg 96%
04:00 +17°C° 0 mm 2 mps 743 mmHg 96%
05:00 +17°C° 0 mm 2 mps 743 mmHg 97%
06:00 +18°C° 0 mm 3 mps 743 mmHg 91%
07:00 +19°C° 0 mm 3 mps 743 mmHg 86%
08:00 +21°C° 0 mm 4 mps 744 mmHg 80%
09:00 +22°C° 0 mm 4 mps 744 mmHg 71%
10:00 +25°C° 0 mm 4 mps 744 mmHg 62%
11:00 +27°C° 0 mm 4 mps 744 mmHg 52%
12:00 +28°C° 0 mm 5 mps 744 mmHg 47%
13:00 +28°C° 0 mm 5 mps 744 mmHg 42%
14:00 +29°C° 0 mm 5 mps 744 mmHg 38%
15:00 +28°C° 0 mm 5 mps 744 mmHg 43%
16:00 +27°C° 0 mm 4 mps 744 mmHg 49%
17:00 +25°C° 0 mm 4 mps 744 mmHg 55%
18:00 +24°C° 0 mm 3 mps 745 mmHg 61%
19:00 +22°C° 0 mm 3 mps 745 mmHg 67%
20:00 +21°C° 0 mm 2 mps 745 mmHg 73%
21:00 +20°C° 0 mm 2 mps 745 mmHg 77%
22:00 +19°C° 0 mm 2 mps 745 mmHg 82%
23:00 +18°C° 0 mm 2 mps 746 mmHg 86%
Show more